Location: �terpigny
(49.8910°N, 2.9249°E)
Time: 07:07:10
(UTC+00:00)

CUBESAT XI-V - Pass Details

Date: 05 July 2022
Orbit: 667 x 690 km, 98.1° (Epoch: 08 August)

Event Time Altitude Azimuth Distance (km) Brightness Sun altitude
Rises 23:24:42 0° 100° (E) 3,018 ? -17.1°
Reaches altitude 10° 23:29:20 10° 57° (ENE) 2,106 ? -17.2°
Maximum altitude 23:29:46 10° 52° (NE) 2,098 ? -17.2°
Drops below altitude 10° 23:30:12 10° 46° (NE) 2,106 ? -17.2°
Sets 23:34:50 0° 3° (N) 3,025 ? -17.3°
